Terminal Aerodrome Forecast
Issued by NWS

Home | Current Version | Previous Version | Text Only | Print | Product List | Glossary On
Versions: 1 2 3 4 5 6 7 8 9 10 11 12 13 14 15 16 17 18 19 20 21 22 23 24
000
FTPA31 PHFO 152300
TAFJRF
TAF
PHJR 152322Z 1600/1624 21009KT P6SM SCT030 BKN060
     FM160400 VRB05KT P6SM FEW030 BKN060
     FM160800 00000KT P6SM FEW025
     FM162000 14008KT P6SM SCT030 SCT060=

USA.gov is the U.S. government's official web portal to all federal, state and local government web resources and services.